Helicity
192 174 157 139 133 128 104 79 67 67 67 61 74 86 88 89 96 98 107 110 129 145
195 192 180 180 172 142 120 96 94 88 72 63 76 89 91 100 101 108 115 132 143 171
210 213 209 204 189 163 130 108 102 84 73 75 92 97 102 110 108 117 128 135 159 157
238 246 237 214 185 154 130 114 98 90 85 91 101 102 103 106 108 136 146 147 164 164
268 268 247 219 181 149 127 105 106 105 100 105 101 101 109 126 137 149 157 157 159 156
293 270 232 193 159 141 125 121 115 108 101 101 105 112 124 140 141 139 155 158 162 137
280 236 196 169 155 136 123 115 110 108 108 102 101 111 111 120 132 149 158 153 143 130
245 204 187 172 150 122 118 121 112 106 97 95 105 102 99 117 144 156 155 148 140 139
210 205 186 160 123 124 131 115 105 95 93 103 104 73 63 98 143 157 166 157 145 153
212 187 158 134 130 133 118 108 95 94 103 116 124 78 83 82 136 174 172 177 183 178
172 162 151 139 133 121 110 105 101 106 120 136 129 78 78 91 155 190 190 181 182 156
155 152 141 135 128 115 111 111 114 123 129 132 123 82 112 130 173 181 183 178 150 104
140 129 125 119 113 109 101 106 123 120 118 93 122 110 115 156 185 190 191 169 144 81
121 105 95 101 98 100 105 118 123 129 122 108 104 115 101 125 156 162 154 144 143 142
Wind_Speed
27 30 34 36 39 43 48 52 58 62 66 68 69 70 72 74 76 77 81 84 84 85
28 31 34 38 41 46 51 55 61 64 68 70 72 74 75 77 80 81 82 83 83 83
29 32 36 39 45 50 54 59 64 67 70 73 74 76 77 79 80 82 83 84 86 86
30 34 38 43 48 53 57 62 66 70 73 75 77 78 79 80 80 83 85 84 87 94
32 36 41 46 50 55 61 64 69 72 74 77 77 78 80 82 83 86 86 90 95 97
35 39 43 48 53 58 64 68 71 73 76 77 77 79 81 83 84 85 89 91 95 99
37 40 45 50 56 62 66 69 72 74 75 75 78 82 83 85 88 89 89 90 93 98
37 42 47 53 60 64 67 69 72 74 74 78 83 84 90 92 92 92 92 92 95 92
39 45 50 57 62 66 69 71 72 74 78 84 86 89 93 93 93 92 95 98 98 92
42 48 54 59 63 67 70 71 74 79 83 87 90 92 94 95 94 94 94 95 95 91
44 51 56 61 63 66 68 72 77 82 86 90 91 93 95 98 93 92 91 92 88 86
47 54 59 61 64 66 69 75 80 85 89 91 91 94 97 98 98 97 97 89 81 82
50 54 57 59 62 65 71 79 84 87 86 87 92 92 98 99 99 100 96 88 84 86
51 53 54 57 62 71 80 85 87 87 86 86 87 94 99 100 96 92 91 88 86 85
Wind_Direction
11 6 4 3 1 359 356 354 352 350 349 347 346 345 343 341 340 339 336 334 332 331
3 3 2 1 358 355 352 350 349 348 347 345 344 343 342 340 339 338 336 335 334 332
359 359 358 355 352 349 349 347 346 346 345 344 343 343 342 340 339 338 337 336 334 333
354 353 352 349 348 347 347 346 345 344 343 343 342 342 341 340 339 338 336 336 334 331
349 348 346 346 346 345 344 344 343 343 343 342 341 341 340 339 338 337 336 334 333 332
343 343 343 343 344 344 343 343 343 342 342 342 342 340 339 338 337 337 335 335 334 332
339 341 341 342 342 342 343 342 343 343 342 342 341 340 339 338 336 335 335 335 334 333
340 340 341 341 341 342 342 343 343 343 343 343 341 340 338 337 336 335 334 334 335 334
339 339 340 340 340 341 342 343 344 344 343 341 341 339 338 337 336 335 334 334 334 334
338 339 339 340 341 342 343 344 344 343 342 342 341 340 339 338 336 335 334 333 333 333
338 338 339 340 342 343 344 344 344 343 343 341 341 341 340 338 337 335 334 333 332 332
339 339 340 341 342 344 344 344 343 343 342 341 342 342 342 340 339 337 335 335 336 336
340 341 341 343 344 345 344 342 343 342 343 343 343 345 344 342 339 337 338 339 338 336
343 343 345 346 346 343 342 342 342 342 344 345 345 344 344 343 342 341 340 340 339 339